Regional Weather Roundup
Issued by NWS

Home | Current Version | Previous Version | Graphics & Text | Print | Product List | Glossary On
Versions: 1 2 3 4 5 6 7 8 9 10 11 12 13 14 15 16 17 18 19 20 21 22 23 24 25 26 27 28
000
ASUS45 KCYS 240010
RWRWY

WYOMING REGIONAL WEATHER ROUNDUP
NATIONAL WEATHER SERVICE CHEYENNE WY
600 PM MDT SAT JUL 23 2016

NOTE:  "FAIR" INDICATES FEW OR NO CLOUDS BELOW 12,000 FEET
WITH NO SIGNIFICANT WEATHER AND/OR OBSTRUCTIONS TO VISIBILITY.

WYZ001-240100-
YELLOWSTONE NATIONAL PARK

CITY           SKY/WX    TMP DP  RH WIND       PRES   REMARKS
LK YELLOWSTONE   N/A     68  27  21 VRB6      30.30F
6HR MIN TEMP:  65; 6HR MAX TEMP:  72;

W YELLOWSTONE  NOT AVBL

$$
WYZ002>013-054>058-071-098>099-240100-
NORTHERN WYOMING

CITY           SKY/WX    TMP DP  RH WIND       PRES   REMARKS
JACKSON        SUNNY     79  25  13 W14       30.19F
CODY           FAIR      81  39  22 N14       30.07S
GREYBULL       FAIR      89  30  12 NW12      29.96S
6HR MIN TEMP:  83; 6HR MAX TEMP:  91;

WORLAND        FAIR      87  31  13 N6        29.96F
6HR MIN TEMP:  81; 6HR MAX TEMP:  90;

SHERIDAN       FAIR      86  33  15 N8        30.02S
6HR MIN TEMP:  81; 6HR MAX TEMP:  88;

BUFFALO        FAIR      82  36  19 N9G17     30.09S
6HR MIN TEMP:  78; 6HR MAX TEMP:  84;

GILLETTE       FAIR      82  38  20 N10       30.03S
6HR MIN TEMP:  79; 6HR MAX TEMP:  86;

HULETT         FAIR      82  36  18 W6        30.04S
NEWCASTLE      FAIR      86  32  14 N9        30.00F

$$
WYZ014>020-022>026-101>103-240100-
CENTRAL WYOMING

CITY           SKY/WX    TMP DP  RH WIND       PRES   REMARKS
BIG PINEY      FAIR      82  24  12 NW16      30.22F
6HR MIN TEMP:  75; 6HR MAX TEMP:  84;

PINEDALE       FAIR      79  23  12 NW14G21   30.24S
DUBOIS         FAIR      77  21  12 N16G25    30.19S
LANDER         FAIR      90  20   7 W18G24    30.02F
6HR MIN TEMP:  80; 6HR MAX TEMP:  92;

RIVERTON       FAIR      91   6   4 W16G26    30.03F
6HR MIN TEMP:  80; 6HR MAX TEMP:  92;

CASPER         FAIR      91  17   6 N16G23    30.01F
6HR MIN TEMP:  79; 6HR MAX TEMP:  95;

DOUGLAS          N/A    N/A N/A N/A MISG      30.01F

$$
WYZ021-027>030-104>119-240100-
SOUTHERN WYOMING

CITY           SKY/WX    TMP DP  RH WIND       PRES   REMARKS
EVANSTON       FAIR      82  13   7 W17G33    30.25S
6HR MIN TEMP:  76; 6HR MAX TEMP:  85;

KEMMERER         N/A     79  16   9 W17G28    30.25F
FORT BRIDGER   FAIR      85  16   7 W21G32    30.26S
ROCK SPRINGS   FAIR      86  12   6 W20G26    30.17F
6HR MIN TEMP:  79; 6HR MAX TEMP:  88;

DIXON          MOCLDY    86  33  14 CALM      30.19S
RAWLINS        FAIR      87  12   6 W20G32    30.17F
6HR MIN TEMP:  82; 6HR MAX TEMP:  90;

SARATOGA       FAIR      86  28  12 W15       30.21F
LARAMIE        FAIR      82  33  17 W14       30.20F
6HR MIN TEMP:  73; 6HR MAX TEMP:  87; 6HR PCP: TRACE;

CHEYENNE       PTSUNNY   78  46  32 E9        30.12R
6HR MIN TEMP:  78; 6HR MAX TEMP:  94; 6HR PCP: TRACE;

TORRINGTON     FAIR      93  37  14 E17       29.94F
6HR MIN TEMP:  88; 6HR MAX TEMP:  97;

PINE BLUFFS    TSTM      70  55  60 SE10      30.09R

$$




USA.gov is the U.S. government's official web portal to all federal, state and local government web resources and services.